{"data":{"norad_id":55246,"intl_designator":"2022-144G","name":"LINUSS1","alt_names":[],"object_type":"PAYLOAD","status":"ACTIVE","operator":null,"country":"US","launch_date":"2022-11-01","launch_site_code":"AFETR","launch_vehicle":null,"mission":null,"orbit_class":"UNKNOWN","rcs_meters":null,"size_class":null,"mass_kg":null,"dimensions":null,"purposes":[],"wikipedia_slug":null,"has_3d_model":false,"image_url":null,"decayed_at":null,"tle_current":{"epoch":"2026-09-21T15:12:33.540192Z","epoch_age_seconds":70306,"freshness":"FRESH","line1":"1 55246U 22144G   26264.63372153 -.00000173  00000+0  00000+0 0  9995","line2":"2 55246   5.6119  63.3937 0008401 299.8307  43.2320  0.99057935 12619","mean_motion":0.99057935,"eccentricity":0.0008401,"inclination_deg":5.6119,"raan_deg":63.3937,"arg_perigee_deg":299.8307,"mean_anomaly_deg":43.232,"bstar":0,"rev_number":1261,"period_min":1453.6947494413,"perigee_km":36094.639959631,"apogee_km":36166.062721741,"semimajor_km":42508.488340686,"source":"CELESTRAK","updated_at":"2026-09-22T09:00:25.315459Z"}}}